Skip Page Navigation
NASA JPL Caltech
NASA Logo - Jet Propulsion Laboratory + View the NASA Portal
+ Near-Earth Object (NEO) Program
Search JPL
JPL Home Earth Solar System Stars & Galaxies Technology
JPL Solar System Dynamics
BODIES ORBITS EPHEMERIDES TOOLS PHYSICAL DATA DISCOVERY FAQ SITE MAP
JPL Small-Body Database Browser
Search: [ help ]  
(2007 FE)
Classification: Apollo [NEO, PHA]          SPK-ID: 3371366
Ephemeris | Orbit Diagram | Orbital Elements | Physical Parameters | Close-Approach Data ]

[ hide orbit diagram ]
Orbit Diagram
Note: Make sure you have Java enabled on your browser to see the applet. This applet is provided as a 3D orbit visualization tool. The applet was implemented using 2-body methods, and hence should not be used for determining accurate long-term trajectories (over several years or decades) or planetary encounter circumstances. For accurate long-term ephemerides, please instead use our Horizons system.
Orbit Viewer

Additional Notes: the orbits shown in the applet are color coded. The planets are white lines, and the asteroid/comet is a blue line. The bright white line indicates the portion of the orbit that is above the ecliptic plane, and the darker portion is below the ecliptic plane. Likewise for the asteroid/comet orbit, the light blue indicates the portion above the ecliptic plane, and the dark blue the portion below the ecliptic plane.

Orbit Viewer applet originally written and kindly provided by Osamu Ajiki (AstroArts), and further modified by Ron Baalke (JPL).


Orbital Elements at Epoch 2456400.5 (2013-Apr-18.0) TDB
Reference: JPL 12 (heliocentric ecliptic J2000)
 Element Value Uncertainty (1-sigma)   Units 
e .4570655504467062 2.7554e-07  
a 1.794694110706313 1.9112e-07 AU
q .9744012591128702 4.8933e-07 AU
i 6.990479229456327 1.8847e-05 deg
node 122.700379606733 0.00021206 deg
peri 135.076495721616 0.00026127 deg
M 167.6632593108947 0.00010647 deg
tp 2455991.503598405048
(2012-Mar-05.00359841)
0.00019517 JED
period 878.1810945304424
2.40
0.00014028
3.841e-07
d
yr
n .4099382260016536 6.5483e-08 deg/d
Q 2.614986962299755 2.7848e-07 AU
  Orbit Determination Parameters
   # obs. used (total)      54  
   data-arc span      1996 days (5.46 yr)  
   first obs. used      2002-02-04  
   last obs. used      2007-07-24  
   planetary ephem.      DE405  
   SB-pert. ephem.      SB405-CPV-2  
   condition code      1  
   fit RMS      .71297  
   data source      ORB  
   producer      Otto Matic  
   solution date      2011-Sep-14 20:16:50  

Additional Information
 Earth MOID = .0271182 AU 
 T_jup = 3.936 
[ show covariance matrix ]

Ephemeris | Orbit Diagram | Orbital Elements | Physical Parameters | Close-Approach Data ]

Physical Parameter Table
Parameter Symbol Value Units Sigma Reference Notes
absolute magnitude H 19.375 mag .56746 12 autocmod 2.5a

[ show close-approach data ]
Ephemeris | Orbit Diagram | Orbital Elements | Physical Parameters | Close-Approach Data ]
ABOUT SSD CREDITS/AWARDS PRIVACY/COPYRIGHT GLOSSARY LINKS
FirstGov 2013-May-20 01:43 UT
(server date/time)  
NASA Home Page
Site Manager:   Donald K. Yeomans
Webmaster  Alan B. Chamberlin